Weather History for KTOP - April, 2014

Change the Weather History Date:

Monday, April 28, 2014

  Actual Average Record
Temperature  
Mean Temperature 56 °F 59 °F  
Max Temperature 63 °F 71 °F 92 °F (1910)
Min Temperature 48 °F 48 °F 30 °F (1979)
Degree Days  
Heating Degree Days 9 7  
Month to date heating degree days 280 309  
Since 1 July heating degree days 5312 4904  
Cooling Degree Days 0 1  
Month to date cooling degree days 23 21  
Year to date cooling degree days 23 24  
Growing Degree Days 4 (Base 50)    
Moisture  
Dew Point 43 °F    
Average Humidity 68    
Maximum Humidity 84    
Minimum Humidity 51    
Precipitation  
Precipitation T in 0.14 in 1.97 in (2006)
Month to date precipitation 3.23 3.24  
Year to date precipitation 5.62 7.91  
Snow  
Snow 0.00 in 0.00 in T in (1994)
Month to date snowfall 0.1 0.3  
Year to date snowfall 23.1 11.3  
Since 1 July snowfall 27.4 17.8  
Snow Depth 0.00 in    
Sea Level Pressure  
Sea Level Pressure 29.36 in    
Wind  
Wind Speed 12 mph (SW)    
Max Wind Speed 23 mph    
Max Gust Speed 32 mph    
Visibility 10 miles    
Events      
T = Trace of Precipitation, MM = Missing Value Source: NWS Daily Summary

Daily Weather History Graph

Daily Weather History Graph

Search for Another Location

Airport or City:

Trip Planner

Search our weather history database for the weather conditions in past years. The results will help you decide how hot, cold, wet, or windy it might be!

Date:

Astronomy

Apr. 28, 2014 Rise Set
Actual Time 6:28 AM CDT 8:12 PM CDT
Civil Twilight 5:59 AM CDT 8:41 PM CDT
Nautical Twilight 5:24 AM CDT 9:15 PM CDT
Astronomical Twilight 4:47 AM CDT 9:53 PM CDT
Moon 6:06 AM CDT (4/28) 7:51 PM CDT (4/28)
Length of Visible Light 14h 41m
Length of Day
13h 44m
Waning Crescent, 0% of the Moon is Illuminated
Apr 28
Waning Crescent
Apr 29
New
May 6
First Quarter
May 14
Full
May 21
Last Quarter

Hourly Weather History & Observations

Time (CDT) Temp. Dew Point Humidity Pressure Visibility Wind Dir Wind Speed Gust Speed Precip Events Conditions
12:53 AM 62.6 °F 57.2 °F 82% 29.30 in 10.0 mi East 4.6 mph - N/A   Overcast
1:53 AM 62.6 °F 57.2 °F 82% 29.28 in 10.0 mi SSE 6.9 mph - N/A   Overcast
2:53 AM 62.6 °F 55.4 °F 77% 29.28 in 10.0 mi SSE 5.8 mph - N/A   Overcast
3:53 AM 60.1 °F 45.0 °F 57% 29.26 in 5.0 mi SSW 4.6 mph - N/A   Haze
4:53 AM 59.0 °F 44.1 °F 58% 29.26 in 4.0 mi SSW 5.8 mph - N/A   Haze
5:53 AM 55.9 °F 44.1 °F 64% 29.27 in 8.0 mi West 11.5 mph - N/A   Overcast
6:09 AM 55.0 °F 44.1 °F 67% 29.29 in 9.0 mi West 10.4 mph - N/A   Overcast
6:53 AM 53.1 °F 45.0 °F 74% 29.31 in 10.0 mi West 6.9 mph - N/A   Clear
7:53 AM 53.1 °F 45.0 °F 74% 29.32 in 10.0 mi West 9.2 mph - N/A   Scattered Clouds
8:15 AM 53.1 °F 45.0 °F 74% 29.35 in 10.0 mi WSW 13.8 mph - N/A   Mostly Cloudy
8:53 AM 53.6 °F 42.8 °F 67% 29.34 in 10.0 mi WSW 17.3 mph 21.9 mph N/A   Mostly Cloudy
9:53 AM 55.0 °F 42.1 °F 62% 29.34 in 10.0 mi WSW 16.1 mph 24.2 mph N/A   Scattered Clouds
10:53 AM 55.0 °F 39.9 °F 57% 29.36 in 10.0 mi WSW 16.1 mph 25.3 mph N/A   Overcast
11:53 AM 55.9 °F 39.0 °F 53% 29.37 in 10.0 mi WSW 15.0 mph 24.2 mph N/A   Overcast
12:53 PM 57.0 °F 39.0 °F 51% 29.37 in 10.0 mi SW 17.3 mph 24.2 mph N/A   Overcast
1:53 PM 55.9 °F 39.9 °F 55% 29.38 in 10.0 mi SW 11.5 mph 24.2 mph N/A   Overcast
2:53 PM 55.9 °F 39.0 °F 53% 29.39 in 10.0 mi SW 16.1 mph 26.5 mph N/A   Overcast
3:53 PM 55.4 °F 39.2 °F 54% 29.40 in 10.0 mi WSW 13.8 mph 29.9 mph N/A   Overcast
4:53 PM 55.0 °F 39.0 °F 55% 29.39 in 10.0 mi WSW 17.3 mph 26.5 mph N/A   Overcast
5:53 PM 55.0 °F 39.0 °F 55% 29.40 in 10.0 mi WSW 13.8 mph 25.3 mph N/A   Overcast
6:53 PM 55.0 °F 37.9 °F 53% 29.40 in 10.0 mi WSW 12.7 mph 25.3 mph N/A   Overcast
7:53 PM 55.0 °F 37.9 °F 53% 29.41 in 10.0 mi WSW 13.8 mph 20.7 mph N/A   Overcast
8:53 PM 54.0 °F 37.9 °F 55% 29.41 in 10.0 mi WSW 13.8 mph 25.3 mph N/A   Overcast
9:53 PM 52.0 °F 41.0 °F 66% 29.43 in 10.0 mi WSW 13.8 mph 20.7 mph N/A   Overcast
10:08 PM 51.1 °F 41.0 °F 68% 29.44 in 10.0 mi WSW 9.2 mph 23.0 mph N/A   Overcast
10:53 PM 50.0 °F 42.1 °F 74% 29.45 in 10.0 mi WSW 10.4 mph - N/A   Overcast
11:53 PM 48.9 °F 42.1 °F 77% 29.44 in 10.0 mi WSW 11.5 mph 20.7 mph N/A   Overcast